Location: Bednik
(45.3500°N, 16.3833°E)
Time: 05:25:38
(UTC+00:00)

Meteor 2-3 Rocket - Pass Details

Date: 08 August 2020
Orbit: 841 x 886 km, 81.2° (Epoch: 19 September)

Event Time Altitude Azimuth Distance (km) Brightness Sun altitude
Rises 18:38:57 0° 197° (SSW) 3,467 6.8 -5.1°
Reaches altitude 10° 18:41:24 10° 200° (SSW) 2,536 6.1 -5.5°
Maximum altitude 18:47:09 66° 283° (WNW) 963 4.3 -6.3°
Drops below altitude 10° 18:52:58 10° 6° (N) 2,559 6.6 -7.2°
Sets 18:55:27 0° 9° (N) 3,500 7.2 -7.6°
